THORAD AGENA D DEB, 14466

Orbit data source: Space-Track

THORAD AGENA D DEB, 14466 is space debris in SSO originally from a launch on Wed, 08 Apr 1970 UTC launched from the Air Force Western Test Range (AFWTR). Debris objects in space refer to the collection of defunct objects orbiting the Earth. Examples of debris include non-operational satellites, rocket bodies, and fragments generated from explosions, collisions, or faulty payload assembly.

Loading next visibility...
Identifier
14466, 1970-025NS
Orbit
SSO
Country
Flag of USUS
Related business
Manufacturer
Unknown
Mission
Spacecraft
Bus & Motor
Unknown
Mass
Unknown
Launch date (UTC)
1970-04-08 (56 years ago)
Launch vehicle
Unknown
Launch site
Air Force Western Test Range (AFWTR)
Object type
Payload
Rocket body
Debris
Shape & HBR
Unknown shape, 0.1 m
Radar Cross Section
Small (<0.1 m²)

Expand to show TLE details & history
Last TLE update: 15 hours ago

TLE from 15 hours ago
0 THORAD AGENA D DEB
1 14466U 70025NS  26207.97484136  .00006210  00000-0  12777-2 0  9999
2 14466  99.9764  47.1042 0043241 150.7442 209.6187 14.60431328318223
Epoch: 2026-07-26T23:23Z
TLE epoch observation values (Epoch: 2026-07-26T23:23:46.293Z)
Latitude
-0.00004°
Longitude
111.49625°
Altitude
721.321 km
Speed
7.481 km/s
True Right ascension
03h 08m 25s
True Declination
0° 00' 00"
Sunlit
Object was in daylight at epoch
Visualization orbit readout
Latitude
Unknown
Longitude
Unknown
Altitude
Unknown
Speed
Unknown
Apparent Right ascension
Unknown
Apparent Declination
Unknown
Sunlit
N/A
Visualization observer readout
Local Sidereal Time
03:54:04
Azimuth
Unknown
Elevation
Unknown
Doppler factor
Unknown
Orbital elements
Apogee altitude
719.511 km
Perigee altitude
658.394 km
Semi-major axis
7,067.089 km
Eccentricity
0.00432
Inclination
99.9764°
RAAN
47.1042°
Arg. of periapsis
150.7442°
True anomaly
209.37495°
Mean anomaly
209.6187°
Eccentric anomaly
209.49671°
Mean motion
3.65327 °/min
Orbital period
98.54 mins
BSTAR
0.0012777
Loading maneuver chart data...
Computing Atmospheric mass density...

Documentation

Showing up to 5 results
|